Location: Wellington
(41.3000°S, 174.7830°E)
Time: 18:57:51
(UTC+13:00)

ISS - Pass Details

Date: 02 February 2019
Orbit: 403 x 411 km, 51.6° (Epoch: 22 February)

Event Time Altitude Azimuth Distance (km) Brightness Sun altitude
Exits shadow 04:30:27 72° 308° (NW) 442 -3.9 -18.8°
Maximum altitude 04:30:45 90° 40° (NE) 422 -3.9 -18.8°
Drops below altitude 10° 04:34:08 10° 125° (SE) 1,500 0.3 -18.4°
Sets 04:36:14 0° 125° (SE) 2,366 1.7 -18.1°
